EW4727 Weather Reports


time (UTC)temp
C
wind
direction
speed
KPH
gust
KPH
rain 1hr
cm
rain 24hr
cm
rain mn
cm
humidity
%
barometer
mb
20180221225705 10 70 0.0 8.0 0.00 0.00 0.00 79 1010.8
20180221224704 11 62 0.0 1.6 0.00 0.00 0.00 80 1010.7
20180221223705 10 62 1.6 8.0 0.00 0.00 0.00 81 1010.6
20180221222705 11 339 0.0 4.8 0.00 0.00 0.00 80 1010.6
20180221221710 11 338 0.0 0.0 0.00 0.00 0.00 80 1010.6
20180221215705 11 338 0.0 0.0 0.00 0.00 0.00 78 1010.6
20180221214705 11 338 0.0 0.0 0.00 0.00 0.00 78 1010.7
20180221213705 11 338 0.0 1.6 0.00 0.00 0.00 78 1010.7
20180221212704 11 338 0.0 0.0 0.00 0.00 0.00 78 1010.6
20180221211704 11 338 0.0 0.0 0.00 0.00 0.00 77 1010.6
20180221205704 11 338 0.0 0.0 0.00 0.00 0.00 75 1010.6
20180221204704 12 338 0.0 0.0 0.00 0.00 0.00 74 1010.7
20180221203704 12 338 0.0 0.0 0.00 0.00 0.00 72 1010.7
20180221202705 12 338 0.0 0.0 0.00 0.00 0.00 73 1010.5
20180221201704 12 338 0.0 0.0 0.00 0.00 0.00 74 1010.5
20180221195704 12 338 0.0 0.0 0.00 0.00 0.00 75 1010.6
20180221194711 12 338 0.0 0.0 0.00 0.00 0.00 74 1010.7
20180221193704 12 338 0.0 0.0 0.00 0.00 0.00 75 1010.9
20180221192704 12 338 0.0 0.0 0.00 0.00 0.00 74 1011.0
20180221191705 12 338 0.0 0.0 0.00 0.00 0.00 73 1010.9
20180221190711 12 338 0.0 0.0 0.00 0.00 0.00 73 1010.8
20180221185704 13 338 0.0 0.0 0.00 0.00 0.00 72 1010.8
20180221184705 13 338 0.0 0.0 0.00 0.00 0.00 71 1010.8
20180221183704 13 338 0.0 0.0 0.00 0.00 0.00 70 1010.8
20180221182704 13 338 0.0 0.0 0.00 0.00 0.00 69 1010.8
20180221181704 14 338 0.0 1.6 0.00 0.00 0.00 68 1010.7
20180221175710 14 338 1.6 4.8 0.00 0.00 0.00 66 1010.5
20180221174705 15 338 3.2 12.9 0.00 0.00 0.00 66 1010.5
20180221173705 15 340 4.8 16.1 0.00 0.00 0.00 65 1010.4
20180221172704 15 344 4.8 9.7 0.00 0.00 0.00 65 1010.4
20180221171706 15 5 4.8 19.3 0.00 0.00 0.00 66 1010.4
20180221165704 15 0 11.3 19.3 0.00 0.00 0.00 65 1010.3
20180221164704 15 346 8.0 20.9 0.00 0.00 0.00 63 1010.3
20180221163704 15 5 8.0 19.3 0.00 0.00 0.00 64 1010.4
20180221162705 15 327 14.5 22.5 0.00 0.00 0.00 64 1010.5
20180221161706 15 316 8.0 19.3 0.00 0.00 0.00 63 1010.5
20180221160704 15 329 9.7 19.3 0.00 0.00 0.00 63 1010.4
20180221155705 15 348 16.1 20.9 0.00 0.00 0.00 61 1010.3
20180221154704 15 331 14.5 27.4 0.00 0.00 0.00 61 1010.4
20180221153704 15 355 11.3 20.9 0.00 0.00 0.00 62 1010.5
20180221152707 15 332 11.3 22.5 0.00 0.00 0.00 61 1010.7
20180221151704 15 328 11.3 22.5 0.00 0.00 0.00 61 1010.8
20180221150704 15 315 8.0 22.5 0.00 0.00 0.00 63 1010.8
20180221145709 16 316 12.9 22.5 0.00 0.00 0.00 61 1010.9
20180221144704 17 332 12.9 20.9 0.00 0.00 0.00 58 1011.2
20180221143705 18 114 3.2 20.9 0.00 0.00 0.00 48 1011.3
20180221142704 18 80 0.0 8.0 0.00 0.00 0.00 48 1011.3
20180221141705 17 83 1.6 11.3 0.00 0.00 0.00 48 1011.5
20180221140705 17 106 1.6 14.5 0.00 0.00 0.00 49 1011.8
20180221134704 17 50 3.2 14.5 0.00 0.00 0.00 49 1012.0
20180221133704 17 72 1.6 14.5 0.00 0.00 0.00 50 1012.3
20180221132704 17 84 3.2 20.9 0.00 0.00 0.00 50 1012.4
20180221131704 16 112 4.8 19.3 0.00 0.00 0.00 52 1012.5
20180221130704 16 111 8.0 19.3 0.00 0.00 0.00 52 1012.6
20180221125704 16 48 4.8 19.3 0.00 0.00 0.00 53 1012.7
20180221124708 16 96 4.8 19.3 0.00 0.00 0.00 53 1012.8
20180221123704 16 66 8.0 20.9 0.00 0.00 0.00 54 1013.0
20180221122704 15 75 8.0 25.7 0.00 0.00 0.00 54 1013.3
20180221121704 15 74 9.7 22.5 0.00 0.00 0.00 54 1013.6
20180221120704 15 87 8.0 25.7 0.00 0.00 0.00 54 1013.4
20180221115707 15 101 12.9 22.5 0.00 0.00 0.00 55 1013.7
20180221113705 15 113 3.2 19.3 0.00 0.00 0.00 58 1013.7
20180221112708 15 55 8.0 16.1 0.00 0.00 0.00 59 1013.8
20180221111704 14 80 1.6 14.5 0.00 0.00 0.00 61 1014.1
20180221110708 13 105 3.2 14.5 0.00 0.00 0.00 63 1014.2
20180221105704 13 82 8.0 20.9 0.00 0.00 0.00 62 1014.2
20180221103704 13 105 4.8 12.9 0.00 0.00 0.00 65 1014.3
20180221102704 13 90 8.0 19.3 0.00 0.00 0.00 65 1014.3
20180221101704 12 111 6.4 12.9 0.00 0.00 0.00 68 1014.3
20180221100704 12 110 6.4 14.5 0.00 0.00 0.00 73 1014.2
20180221095704 11 58 1.6 9.7 0.00 0.00 0.00 75 1014.3
20180221094703 11 52 4.8 9.7 0.00 0.00 0.00 76 1014.3
20180221093713 10 59 3.2 8.0 0.00 0.00 0.00 78 1014.4
20180221092705 10 55 0.0 4.8 0.00 0.00 0.00 80 1014.4
20180221090704 10 54 4.8 8.0 0.00 0.00 0.00 79 1014.5
20180221085707 10 59 0.0 0.0 0.00 0.00 0.00 83 1014.4
20180221084704 9 59 0.0 0.0 0.00 0.00 0.00 83 1014.5
20180221082704 8 59 0.0 0.0 0.00 0.00 0.00 87 1014.1
20180221080705 7 59 0.0 0.0 0.00 0.00 0.00 90 1014.4
20180221075705 7 59 0.0 0.0 0.00 0.00 0.00 90 1014.4
20180221074704 7 59 0.0 4.8 0.00 0.00 0.00 89 1014.3
20180221072705 6 59 0.0 0.0 0.00 0.00 0.00 90 1014.4
20180221071704 6 59 0.0 4.8 0.00 0.00 0.00 90 1014.4
20180221070704 6 59 3.2 8.0 0.00 0.00 0.00 89 1014.4
20180221065705 7 59 0.0 0.0 0.00 0.00 0.00 89 1014.3
20180221064704 7 59 0.0 4.8 0.00 0.00 0.00 90 1014.4
20180221063704 7 59 1.6 9.7 0.00 0.00 0.00 89 1014.3
20180221061704 7 67 0.0 4.8 0.00 0.00 0.00 89 1014.6
20180221060704 7 67 3.2 4.8 0.00 0.00 0.00 89 1014.7
20180221055704 7 67 1.6 4.8 0.00 0.00 0.00 89 1014.7
20180221054705 7 74 0.0 4.8 0.00 0.00 0.00 89 1014.8
20180221053704 7 74 1.6 4.8 0.00 0.00 0.00 89 1014.9
20180221052705 7 74 0.0 4.8 0.00 0.00 0.00 88 1014.9
20180221050704 7 74 0.0 0.0 0.00 0.00 0.00 87 1014.8
20180221045705 8 74 0.0 0.0 0.00 0.00 0.00 86 1014.9
20180221044704 8 74 0.0 0.0 0.00 0.00 0.00 86 1014.9
20180221043704 8 74 0.0 0.0 0.00 0.00 0.00 87 1015.1
20180221042705 8 74 0.0 0.0 0.00 0.00 0.00 87 1015.2
20180221041704 8 74 0.0 0.0 0.00 0.00 0.00 86 1015.4
20180221035705 8 74 0.0 1.6 0.00 0.00 0.00 86 1015.5
20180221034705 8 74 0.0 4.8 0.00 0.00 0.00 85 1015.7
20180221033713 8 74 0.0 3.2 0.00 0.00 0.00 85 1015.8
20180221032704 8 74 0.0 0.0 0.00 0.00 0.00 85 1015.9
20180221031713 8 74 0.0 0.0 0.00 0.00 0.00 85 1016.0
20180221030704 8 74 0.0 4.8 0.00 0.00 0.00 84 1016.1
20180221025707 9 74 0.0 0.0 0.00 0.00 0.00 83 1016.2
20180221024705 10 74 0.0 0.0 0.00 0.00 0.00 81 1016.2
20180221023705 10 74 0.0 0.0 0.00 0.00 0.00 80 1016.4
20180221022705 10 74 0.0 8.0 0.00 0.00 0.00 80 1016.6
20180221021705 10 74 0.0 4.8 0.00 0.00 0.00 80 1016.7
20180221020705 10 74 1.6 4.8 0.00 0.00 0.00 81 1016.8
20180221014705 9 74 0.0 0.0 0.00 0.00 0.00 83 1017.0
20180221013705 10 74 0.0 3.2 0.00 0.00 0.00 83 1017.1
20180221012704 10 74 3.2 4.8 0.00 0.00 0.00 83 1017.1
20180221011704 10 74 1.6 4.8 0.00 0.00 0.00 82 1017.4
20180221010704 10 78 0.0 4.8 0.00 0.00 0.00 81 1017.5
20180221005705 10 78 1.6 8.0 0.00 0.00 0.00 81 1017.3
20180221003704 10 71 0.0 4.8 0.00 0.00 0.00 82 1017.6
20180221002705 10 71 1.6 12.9 0.00 0.00 0.00 82 1017.8
20180221001708 10 53 1.6 9.7 0.00 0.00 0.00 83 1017.7
20180221000704 10 55 0.0 4.8 0.00 0.00 0.00 83 1017.7
20180220235705 11 55 0.0 4.8 0.00 0.00 0.00 83 1017.8
20180220234704 11 55 0.0 8.0 0.00 0.00 0.00 83 1017.8
20180220233705 10 54 0.0 0.0 0.00 0.00 0.00 85 1017.9
20180220232705 11 54 0.0 1.6 0.00 0.00 0.00 85 1017.9
20180220231704 11 54 1.6 9.7 0.00 0.00 0.00 85 1017.9
20180220230709 11 57 3.2 4.8 0.00 0.00 0.00 84 1017.9